User: anonymous   Login
Location: Unspecified
(0.0000°N, 0.0000°E)
Time: 09:15:49
(UTC+00:00)
Language:

HAIYANG 2A - Orbit

View from above orbital plane
View from above orbital plane
View from above satellite
View from above satellite

Ground track
Ground track

The orbit data is extracted from the following two-line orbital elements,

1 37781U 11043A   18018.75816781 -.00000708  00000-0 -65409-3 0  9990
2 37781  99.3270  31.3876 0001709 106.7479 253.3847 13.78714967323684
Epoch (UTC): 18 January 2018 18:11:45
Eccentricity: 0.0001709
inclination: 99.3270°
perigee height: 967 km
apogee height: 970 km
right ascension of ascending node: 31.3876°
argument of perigee: 106.7479°
revolutions per day: 13.78714967
mean anomaly at epoch: 253.3847°
orbit number at epoch: 32368

The dashed part of the orbit path shows where the satellite is in the earth's shadow,  

DLR